Location: ???
(60.6398°N, 46.9067°E)
Time: 18:25:23
(UTC+00:00)

Cosmos 1553 Rocket - Pass Details

Date: 08 December 2019
Orbit: 942 x 1007 km, 82.9° (Epoch: 16 January)

Event Time Altitude Azimuth Distance (km) Brightness Sun altitude
Rises 14:59:32 0° 345° (NNW) 3,699 7.1 -21.5°
Reaches altitude 10° 15:02:04 10° 348° (NNW) 2,757 6.4 -21.8°
Maximum altitude 15:08:24 71° 72° (ENE) 1,055 3.9 -22.6°
Drops below altitude 10° 15:14:47 10° 157° (SSE) 2,776 6.2 -23.4°
Sets 15:17:20 0° 160° (SSE) 3,726 6.9 -23.7°
